Regional Weather Roundup
Issued by NWS

Home | Current Version | Previous Version | Graphics & Text | Print | Product List | Glossary On
Versions: 1 2 3 4 5 6 7 8 9 10 11 12 13 14 15 16 17 18 19 20 21 22 23 24 25 26 27 28 29 30 31 32 33 34 35 36 37 38 39 40 41 42 43 44 45 46 47 48 49 50
000
ASUS43 KIND 200359
RWRIN

WEATHER ROUNDUP FOR INDIANA
NATIONAL WEATHER SERVICE INDIANAPOLIS IN
1100 PM EST THU JAN 19 2017

NOTE: "FAIR" INDICATES FEW OR NO CLOUDS BELOW 12,000 FEET WITH NO
SIGNIFICANT WEATHER AND/OR OBSTRUCTIONS TO VISIBILITY.

* - STATION DOES NOT REPORT WEATHER SUCH AS PRECIPITATION OR FOG.

+ - STATION NOT QUALITY CONTROLLED BY THE NATIONAL WEATHER SERVICE.
    USE DATA WITH CAUTION...ESPECIALLY DEWPOINT AND RELATIVE
    HUMIDITY OBSERVATIONS.

INZ001>003-010>013-019-020-200500-
NORTHWEST INDIANA

CITY           SKY/WX    TMP DP  RH WIND       PRES   REMARKS
GARY /AIRPORT/ LGT RAIN  39  37  93 NE7       29.77F
KNOX *+        CLOUDY    37  30  75 E6        29.75F
MONTICELLO +   LGT RAIN  41  39  95 E7G16     29.73F
VALPARAISO     LGT RAIN  39  38  96 E13       29.75F FOG

$$

LMZ046-743>745-200500-
SOUTHERN LAKE MICHIGAN

STATION/POSITION TIME  TEMP    WIND        PRES    WAVE
                       AIR SEA DIR/SP/G            HT
                 (UTC) (F)     (DEG/KT/KT) (MB)    (FT)
BURNS HARBOR     0340   35      50/  7/  8 1008.8F
MICHIGAN CITY    0330   38      50/  5/  6   N/A

$$

INZ004-005-014>016-021>024-200500-
NORTH CENTRAL INDIANA

CITY           SKY/WX    TMP DP  RH WIND       PRES   REMARKS
GOSHEN         LGT RAIN  37  34  89 E9        29.80F FOG
PERU/GRISSOM   LGT RAIN  41  41 100 E13       29.73F FOG
SOUTH BEND     LGT RAIN  37  36  96 E9        29.79F FOG

$$

INZ006>009-017-018-025>027-200500-
NORTHEAST INDIANA

CITY           SKY/WX    TMP DP  RH WIND       PRES   REMARKS
ANGOLA *+      CLOUDY    36  36 100 E8        29.83F
FORT WAYNE     LGT RAIN  41  37  86 E12       29.81F FOG
KENDALLVILLE + CLOUDY    37  36  96 E9        29.81F FOG

$$

INZ028-029-035-036-043>045-051>053-200500-
WEST CENTRAL INDIANA

CITY           SKY/WX    TMP DP  RH WIND       PRES   REMARKS
CRAWFORDSVL +  LGT SNOW  42  42 100 E12       29.70F
LAFAYETTE      LGT RAIN  42  42 100 E9        29.71F FOG
TERRE HAUTE    LGT RAIN  46  44  93 E9        29.67F

$$

INZ030>032-037>040-046>048-054>057-064-065-200500-
CENTRAL INDIANA

CITY           SKY/WX    TMP DP  RH WIND       PRES   REMARKS
INDIANAPOLIS   HVY RAIN  44  43  96 E9        29.71F FOG
-EAGLE CREEK   RAIN      44  42  93 E7        29.72F FOG
KOKOMO +       RAIN      41  41 100 E12       29.75F FOG
MT COMFORT *+  CLOUDY    43  43 100 E9        29.73F
SHELBYVILLE    RAIN      46  42  86 E9        29.72F

$$

INZ033-034-041-042-049-050-058-059-200500-
EAST CENTRAL INDIANA

CITY           SKY/WX    TMP DP  RH WIND       PRES   REMARKS
MUNCIE         RAIN      44  41  89 E13       29.75F FOG

$$

INZ060-061-067>069-081>083-085>088-200500-
SOUTHWEST INDIANA

CITY           SKY/WX    TMP DP  RH WIND       PRES   REMARKS
EVANSVILLE     LGT RAIN  54  53  97 SE3       29.68S FOG
HUNTINGBURG *+ LGT RAIN  51  50  96 SE7       29.68F

$$

INZ062-063-066-070>080-084-089>092-200500-
SOUTH CENTRAL AND SOUTHEAST INDIANA

CITY           SKY/WX    TMP DP  RH WIND       PRES   REMARKS
BLOOMINGTON    RAIN      46  44  93 SE10      29.69F
MADISON *+     CLOUDY    46  45  93 E8        29.73F
SEYMOUR +      LGT RAIN  48  48 100 E3        29.72F

$$





USA.gov is the U.S. government's official web portal to all federal, state and local government web resources and services.